Location: Cisewo
(53.3833°N, 14.9000°E)
Time: 10:43:42
(UTC+00:00)

NOSS 0 Rocket - Pass Details

Date: 18 April 2021
Orbit: 935 x 955 km, 70.0° (Epoch: 14 May)

Event Time Altitude Azimuth Distance (km) Brightness Sun altitude
Rises 19:04:11 0° 325° (NW) 3,625 8.4 -8.5°
Reaches altitude 10° 19:06:43 10° 326° (NW) 2,679 7.5 -8.8°
Maximum altitude 19:12:58 88° 55° (NE) 959 4.0 -9.6°
Enters shadow 19:19:06 11° 147° (SSE) 2,636 5.7 -10.4°
